Time,TemperatureF,DewpointF,PressureIn,WindDirection,WindDirectionDegrees,WindSpeedMPH,WindSpeedGustMPH,Humidity,HourlyPrecipIn,Conditions,Clouds,dailyrainin,SoftwareType,DateUTC
2018-04-20 00:01:00,30.8,29.5,29.86,SW,226,1.0,8.0,95,0.00,,---,0.01,VWS V15.00,2018-04-20 04:01:00,
2018-04-20 00:06:00,30.8,29.5,29.86,SSW,212,4.0,6.0,95,0.00,,---,0.00,VWS V15.00,2018-04-20 04:06:00,
2018-04-20 00:11:00,30.8,29.5,29.87,SSW,197,5.0,6.0,95,0.00,,---,0.00,VWS V15.00,2018-04-20 04:11:00,
2018-04-20 00:16:00,30.9,29.6,29.87,SW,216,2.0,6.0,95,0.00,,---,0.00,VWS V15.00,2018-04-20 04:16:00,
2018-04-20 00:21:00,30.9,29.6,29.87,SSW,206,3.0,5.0,95,0.00,,---,0.00,VWS V15.00,2018-04-20 04:21:00,
2018-04-20 00:26:00,30.9,29.6,29.87,South,183,2.0,6.0,95,0.00,,---,0.00,VWS V15.00,2018-04-20 04:26:00,
2018-04-20 00:31:00,30.9,29.4,29.88,SSW,212,4.0,4.0,94,0.00,,---,0.00,VWS V15.00,2018-04-20 04:31:00,
2018-04-20 00:36:00,30.9,29.4,29.88,SSW,211,5.0,9.0,94,0.00,,---,0.00,VWS V15.00,2018-04-20 04:36:00,
2018-04-20 00:42:00,30.9,29.4,29.88,SW,217,8.0,9.0,94,0.00,,---,0.00,VWS V15.00,2018-04-20 04:42:00,
2018-04-20 00:47:00,30.9,29.4,29.88,SW,219,5.0,6.0,94,0.00,,---,0.00,VWS V15.00,2018-04-20 04:47:00,
2018-04-20 00:52:00,30.8,29.3,29.88,SSW,210,5.0,8.0,94,0.00,,---,0.00,VWS V15.00,2018-04-20 04:52:00,
2018-04-20 00:57:00,30.8,29.3,29.88,SW,223,4.0,9.0,94,0.00,,---,0.00,VWS V15.00,2018-04-20 04:57:00,
2018-04-20 01:02:00,30.7,29.2,29.88,SSW,210,6.0,7.0,94,0.00,,---,0.00,VWS V15.00,2018-04-20 05:02:00,
2018-04-20 01:07:00,30.7,29.2,29.88,SW,231,14.0,14.0,94,0.00,,---,0.00,VWS V15.00,2018-04-20 05:07:00,
2018-04-20 01:12:00,30.6,29.1,29.88,SSW,200,7.0,14.0,94,0.00,,---,0.00,VWS V15.00,2018-04-20 05:12:00,
2018-04-20 01:17:00,30.6,29.1,29.88,SSW,204,7.0,9.0,94,0.00,,---,0.00,VWS V15.00,2018-04-20 05:17:00,
2018-04-20 01:22:00,30.6,29.1,29.88,SW,214,6.0,9.0,94,0.00,,---,0.00,VWS V15.00,2018-04-20 05:22:00,
2018-04-20 01:27:00,30.6,29.1,29.88,SW,221,5.0,13.0,94,0.00,,---,0.00,VWS V15.00,2018-04-20 05:27:00,
2018-04-20 01:32:00,30.6,29.1,29.89,SW,221,8.0,8.0,94,0.00,,---,0.00,VWS V15.00,2018-04-20 05:32:00,
2018-04-20 01:37:00,30.6,28.8,29.89,SW,218,6.0,11.0,93,0.00,,---,0.00,VWS V15.00,2018-04-20 05:37:00,
2018-04-20 01:42:00,30.6,28.8,29.89,SW,219,5.0,11.0,93,0.00,,---,0.00,VWS V15.00,2018-04-20 05:42:00,
2018-04-20 01:47:00,30.5,28.7,29.89,SW,218,4.0,6.0,93,0.00,,---,0.00,VWS V15.00,2018-04-20 05:47:00,
2018-04-20 01:53:00,30.6,28.8,29.89,SW,215,9.0,11.0,93,0.00,,---,0.00,VWS V15.00,2018-04-20 05:53:00,
2018-04-20 01:58:00,30.6,28.8,29.89,SW,222,7.0,11.0,93,0.00,,---,0.00,VWS V15.00,2018-04-20 05:58:00,
2018-04-20 02:03:00,30.5,28.7,29.89,SW,219,5.0,6.0,93,0.00,,---,0.00,VWS V15.00,2018-04-20 06:03:00,
2018-04-20 02:08:00,30.5,28.5,29.89,SSW,206,4.0,10.0,92,0.00,,---,0.00,VWS V15.00,2018-04-20 06:08:00,
2018-04-20 02:13:00,30.4,28.4,29.89,WSW,238,7.0,11.0,92,0.00,,---,0.00,VWS V15.00,2018-04-20 06:13:00,
2018-04-20 02:18:00,30.4,28.6,29.90,SSW,201,8.0,9.0,93,0.00,,---,0.00,VWS V15.00,2018-04-20 06:18:00,
2018-04-20 02:23:00,30.4,28.4,29.90,SW,224,5.0,13.0,92,0.00,,---,0.00,VWS V15.00,2018-04-20 06:23:00,
2018-04-20 02:28:00,30.3,28.5,29.90,SW,216,6.0,13.0,93,0.00,,---,0.00,VWS V15.00,2018-04-20 06:28:00,
2018-04-20 02:33:00,30.2,28.4,29.90,SSW,206,6.0,6.0,93,0.00,,---,0.00,VWS V15.00,2018-04-20 06:33:00,
2018-04-20 02:38:00,30.2,28.4,29.90,SW,223,5.0,8.0,93,0.00,,---,0.00,VWS V15.00,2018-04-20 06:38:00,
2018-04-20 02:43:00,30.1,28.3,29.90,SW,214,6.0,12.0,93,0.00,,---,0.00,VWS V15.00,2018-04-20 06:43:00,
2018-04-20 02:48:00,30.1,28.3,29.90,SW,229,3.0,4.0,93,0.00,,---,0.00,VWS V15.00,2018-04-20 06:48:00,
2018-04-20 02:53:00,30.1,28.3,29.90,SW,214,3.0,6.0,93,0.00,,---,0.00,VWS V15.00,2018-04-20 06:53:00,
2018-04-20 02:59:00,30.1,28.3,29.91,WSW,244,4.0,6.0,93,0.00,,---,0.00,VWS V15.00,2018-04-20 06:59:00,
2018-04-20 03:04:00,30.1,28.3,29.91,SW,223,4.0,6.0,93,0.00,,---,0.00,VWS V15.00,2018-04-20 07:04:00,
2018-04-20 03:09:00,30.1,28.3,29.91,SW,218,5.0,8.0,93,0.00,,---,0.00,VWS V15.00,2018-04-20 07:09:00,
2018-04-20 03:14:00,30.1,28.3,29.91,SW,218,6.0,8.0,93,0.00,,---,0.00,VWS V15.00,2018-04-20 07:14:00,
2018-04-20 03:19:00,30.1,28.3,29.91,SW,214,2.0,8.0,93,0.00,,---,0.00,VWS V15.00,2018-04-20 07:19:00,
2018-04-20 03:24:00,30.1,28.3,29.91,SW,214,5.0,10.0,93,0.00,,---,0.00,VWS V15.00,2018-04-20 07:24:00,
2018-04-20 03:29:00,30.1,28.3,29.91,SSW,208,3.0,10.0,93,0.00,,---,0.00,VWS V15.00,2018-04-20 07:29:00,
2018-04-20 03:34:00,30.2,28.2,29.91,SSW,201,4.0,7.0,92,0.00,,---,0.00,VWS V15.00,2018-04-20 07:34:00,
2018-04-20 03:39:00,30.2,28.2,29.91,WSW,240,0.0,7.0,92,0.00,,---,0.00,VWS V15.00,2018-04-20 07:39:00,
2018-04-20 03:44:00,30.1,28.1,29.91,West,274,3.0,8.0,92,0.00,,---,0.00,VWS V15.00,2018-04-20 07:44:00,
2018-04-20 03:49:00,30.1,28.3,29.91,SSW,203,8.0,10.0,93,0.00,,---,0.00,VWS V15.00,2018-04-20 07:49:00,
2018-04-20 03:55:00,30.2,28.4,29.91,WSW,240,1.0,11.0,93,0.00,,---,0.00,VWS V15.00,2018-04-20 07:55:00,
2018-04-20 04:00:00,30.1,28.3,29.91,SW,233,4.0,11.0,93,0.00,,---,0.00,VWS V15.00,2018-04-20 08:00:00,
2018-04-20 04:05:00,30.1,28.3,29.92,WSW,237,7.0,12.0,93,0.00,,---,0.00,VWS V15.00,2018-04-20 08:05:00,
2018-04-20 04:10:00,30.1,28.3,29.92,SSW,202,4.0,12.0,93,0.00,,---,0.00,VWS V15.00,2018-04-20 08:10:00,
2018-04-20 04:15:00,30.1,28.3,29.92,SW,214,11.0,12.0,93,0.00,,---,0.00,VWS V15.00,2018-04-20 08:15:00,
2018-04-20 04:20:00,30.1,28.3,29.92,WSW,238,1.0,7.0,93,0.00,,---,0.00,VWS V15.00,2018-04-20 08:20:00,
2018-04-20 04:25:00,30.1,28.1,29.92,SW,229,3.0,8.0,92,0.00,,---,0.00,VWS V15.00,2018-04-20 08:25:00,
2018-04-20 04:30:00,30.1,28.1,29.92,South,184,8.0,10.0,92,0.00,,---,0.00,VWS V15.00,2018-04-20 08:30:00,
2018-04-20 04:35:00,30.1,28.1,29.93,SW,223,2.0,9.0,92,0.00,,---,0.00,VWS V15.00,2018-04-20 08:35:00,
2018-04-20 04:40:00,30.1,28.1,29.93,SSW,202,2.0,10.0,92,0.00,,---,0.00,VWS V15.00,2018-04-20 08:40:00,
2018-04-20 04:45:00,30.0,28.0,29.93,SW,214,2.0,10.0,92,0.00,,---,0.00,VWS V15.00,2018-04-20 08:45:00,
2018-04-20 04:50:00,30.0,28.0,29.93,SW,214,4.0,5.0,92,0.00,,---,0.00,VWS V15.00,2018-04-20 08:50:00,
2018-04-20 04:55:00,30.0,28.0,29.94,WSW,248,4.0,6.0,92,0.00,,---,0.00,VWS V15.00,2018-04-20 08:55:00,
2018-04-20 05:01:00,30.0,28.0,29.94,South,189,2.0,7.0,92,0.00,,---,0.00,VWS V15.00,2018-04-20 09:01:00,
2018-04-20 05:06:00,30.0,27.7,29.94,SW,233,4.0,8.0,91,0.00,,---,0.00,VWS V15.00,2018-04-20 09:06:00,
2018-04-20 05:11:00,30.0,27.7,29.94,SSW,210,2.0,8.0,91,0.00,,---,0.00,VWS V15.00,2018-04-20 09:11:00,
2018-04-20 05:16:00,30.0,27.7,29.94,SW,234,1.0,8.0,91,0.00,,---,0.00,VWS V15.00,2018-04-20 09:16:00,
2018-04-20 05:21:00,30.0,27.7,29.95,SW,227,2.0,10.0,91,0.00,,---,0.00,VWS V15.00,2018-04-20 09:21:00,
2018-04-20 05:26:00,30.1,27.5,29.95,South,184,6.0,10.0,90,0.00,,---,0.00,VWS V15.00,2018-04-20 09:26:00,
2018-04-20 05:31:00,30.1,27.5,29.95,SSW,208,4.0,13.0,90,0.00,,---,0.00,VWS V15.00,2018-04-20 09:31:00,
2018-04-20 05:36:00,30.1,27.5,29.95,SW,216,4.0,13.0,90,0.00,,---,0.00,VWS V15.00,2018-04-20 09:36:00,
2018-04-20 05:41:00,30.1,27.5,29.95,SSW,198,4.0,13.0,90,0.00,,---,0.00,VWS V15.00,2018-04-20 09:41:00,
2018-04-20 05:46:00,30.1,27.3,29.95,SW,222,10.0,13.0,89,0.00,,---,0.00,VWS V15.00,2018-04-20 09:46:00,
2018-04-20 05:51:00,30.2,27.4,29.96,SW,216,5.0,9.0,89,0.00,,---,0.00,VWS V15.00,2018-04-20 09:51:00,
2018-04-20 05:56:00,30.1,27.3,29.96,SW,214,5.0,12.0,89,0.00,,---,0.00,VWS V15.00,2018-04-20 09:56:00,
2018-04-20 06:01:00,30.1,27.3,29.97,South,183,5.0,5.0,89,0.00,,---,0.00,VWS V15.00,2018-04-20 10:01:00,
2018-04-20 06:07:00,30.1,27.3,29.97,SSW,210,1.0,10.0,89,0.00,,---,0.00,VWS V15.00,2018-04-20 10:07:00,
2018-04-20 06:12:00,30.1,27.3,29.98,SSW,194,4.0,10.0,89,0.00,,---,0.00,VWS V15.00,2018-04-20 10:12:00,
2018-04-20 06:17:00,30.1,27.3,29.98,SW,219,5.0,5.0,89,0.00,,---,0.00,VWS V15.00,2018-04-20 10:17:00,
2018-04-20 06:22:00,30.1,27.5,29.98,SW,223,3.0,9.0,90,0.00,,---,0.00,VWS V15.00,2018-04-20 10:22:00,
2018-04-20 06:27:00,30.0,27.4,29.99,SW,214,2.0,9.0,90,0.00,,---,0.00,VWS V15.00,2018-04-20 10:27:00,
2018-04-20 06:32:00,30.0,27.4,29.99,SSW,208,0.0,2.0,90,0.00,,---,0.00,VWS V15.00,2018-04-20 10:32:00,
2018-04-20 06:37:00,30.1,27.3,29.99,SW,218,4.0,5.0,89,0.00,,---,0.00,VWS V15.00,2018-04-20 10:37:00,
2018-04-20 06:42:00,30.1,27.3,30.00,SW,229,0.0,5.0,89,0.00,,---,0.00,VWS V15.00,2018-04-20 10:42:00,
2018-04-20 06:47:00,30.1,27.3,30.00,West,266,3.0,6.0,89,0.00,,---,0.00,VWS V15.00,2018-04-20 10:47:00,
2018-04-20 06:52:00,30.2,27.4,30.00,SW,218,4.0,7.0,89,0.00,,---,0.00,VWS V15.00,2018-04-20 10:52:00,
2018-04-20 06:57:00,30.3,27.5,30.00,SW,235,5.0,7.0,89,0.00,,---,0.00,VWS V15.00,2018-04-20 10:57:00,
2018-04-20 07:02:00,30.3,27.5,30.00,SW,227,1.0,4.0,89,0.00,,---,0.00,VWS V15.00,2018-04-20 11:02:00,
2018-04-20 07:08:00,30.4,27.5,30.00,WSW,239,5.0,10.0,89,0.00,,---,0.00,VWS V15.00,2018-04-20 11:08:00,
2018-04-20 07:13:00,30.4,27.5,30.01,SSE,149,5.0,10.0,89,0.00,,---,0.00,VWS V15.00,2018-04-20 11:13:00,
2018-04-20 07:18:00,30.4,27.5,30.01,SSW,205,2.0,5.0,89,0.00,,---,0.00,VWS V15.00,2018-04-20 11:18:00,
2018-04-20 07:23:00,30.4,27.5,30.01,SW,219,11.0,11.0,89,0.00,,---,0.00,VWS V15.00,2018-04-20 11:23:00,
2018-04-20 07:28:00,30.3,27.5,30.01,SW,218,4.0,12.0,89,0.00,,---,0.00,VWS V15.00,2018-04-20 11:28:00,
2018-04-20 07:33:00,30.3,27.5,30.01,SW,215,5.0,8.0,89,0.00,,---,0.00,VWS V15.00,2018-04-20 11:33:00,
2018-04-20 07:38:00,30.3,27.7,30.02,SSW,212,6.0,9.0,90,0.00,,---,0.00,VWS V15.00,2018-04-20 11:38:00,
2018-04-20 07:43:00,30.3,27.7,30.02,SSW,193,4.0,13.0,90,0.00,,---,0.00,VWS V15.00,2018-04-20 11:43:00,
2018-04-20 07:48:00,30.3,27.7,30.02,NW,311,0.0,4.0,90,0.00,,---,0.00,VWS V15.00,2018-04-20 11:48:00,
2018-04-20 07:53:00,30.4,27.8,30.02,South,185,2.0,6.0,90,0.00,,---,0.00,VWS V15.00,2018-04-20 11:53:00,
2018-04-20 07:58:00,30.6,28.0,30.02,SSW,202,4.0,6.0,90,0.00,,---,0.00,VWS V15.00,2018-04-20 11:58:00,
2018-04-20 08:03:00,30.6,27.8,30.03,South,181,5.0,6.0,89,0.00,,---,0.00,VWS V15.00,2018-04-20 12:03:00,
2018-04-20 08:09:00,30.7,27.9,30.03,SW,225,4.0,9.0,89,0.00,,---,0.00,VWS V15.00,2018-04-20 12:09:00,
2018-04-20 08:14:00,30.7,27.9,30.03,ESE,115,1.0,9.0,89,0.00,,---,0.00,VWS V15.00,2018-04-20 12:14:00,
2018-04-20 08:19:00,30.7,27.9,30.04,SW,225,4.0,5.0,89,0.00,,---,0.00,VWS V15.00,2018-04-20 12:19:00,
2018-04-20 08:24:00,30.8,28.0,30.04,SSE,161,3.0,8.0,89,0.00,,---,0.00,VWS V15.00,2018-04-20 12:24:00,
2018-04-20 08:29:00,30.9,28.0,30.04,SW,235,7.0,11.0,89,0.00,,---,0.00,VWS V15.00,2018-04-20 12:29:00,
2018-04-20 08:34:00,31.0,28.1,30.04,SW,214,5.0,6.0,89,0.00,,---,0.00,VWS V15.00,2018-04-20 12:34:00,
2018-04-20 08:39:00,31.0,28.1,30.04,WSW,241,0.0,7.0,89,0.00,,---,0.00,VWS V15.00,2018-04-20 12:39:00,
2018-04-20 08:44:00,31.0,28.1,30.05,SW,214,3.0,8.0,89,0.00,,---,0.00,VWS V15.00,2018-04-20 12:44:00,
2018-04-20 08:49:00,31.2,28.3,30.05,SSW,205,6.0,9.0,89,0.00,,---,0.00,VWS V15.00,2018-04-20 12:49:00,
2018-04-20 08:55:00,31.2,28.3,30.05,WSW,258,8.0,10.0,89,0.01,,---,0.01,VWS V15.00,2018-04-20 12:55:00,
2018-04-20 09:00:00,31.5,28.6,30.05,West,262,5.0,10.0,89,0.01,,---,0.01,VWS V15.00,2018-04-20 13:00:00,